Location: Belle
(50.5230°N, 4.2829°E)
Time: 05:59:29
(UTC+00:00)

Daily predictions for brighter satellites

Satellite Brightness Start Highest point End
(mag) Time Altitude Azimuth Time Altitude Azimuth Time Altitude Azimuth
Cosmos 1331 Rocket 4.0 00:06:53 76° WNW 00:06:53 76° WNW 00:12:10 10° NNE
ATLAS 2AS CENTAUR R/B 2.7 00:09:45 51° WSW 00:11:40 79° NW 00:18:32 10° NE
Cosmos 1891 Rocket 4.5 00:12:15 61° WSW 00:13:06 69° WNW 00:19:20 10° N
IDEFIX/ARIANE 42P 4.5 00:12:09 10° NE 00:15:42 18° E 00:16:41 17° ESE
Cosmos 1900 4.4 00:17:30 75° NNW 00:17:30 75° NNW 00:22:16 10° NE
Meteor 1-20 Rocket 4.3 00:12:50 10° NNW 00:18:03 59° W 00:18:03 59° W
Meteor 1-5 Rocket 4.0 00:15:14 10° N 00:20:39 81° ENE 00:20:58 77° SE
Cosmos 1953 Rocket 4.4 00:18:04 10° N 00:22:18 43° ENE 00:22:18 43° ENE
Cosmos 1110 Rocket 4.4 00:23:00 53° W 00:23:24 55° WNW 00:28:38 10° NNE
Cosmos 1980 Rocket 2.2 00:18:46 10° NNW 00:24:19 68° WSW 00:24:19 68° WSW
USA 234 4.0 00:21:22 10° E 00:27:40 53° N 00:33:59 10° WNW
Cosmos 1825 Rocket 3.9 00:28:47 10° N 00:32:19 59° N 00:32:19 59° N
COSMOS 2406 4.5 00:32:29 27° ESE 00:33:07 28° ESE 00:37:56 10° NE
Meteor 2-10 4.0 00:30:06 10° NNW 00:35:37 88° W 00:36:02 77° S
Cosmos 2369 3.6 00:30:01 10° NNW 00:35:45 84° ENE 00:36:37 65° SE
Cosmos 2084 4.0 00:46:23 54° NE 00:46:23 54° NE 00:49:38 10° NE
Cosmos 1627 Rocket 4.4 00:40:45 10° N 00:47:04 88° E 00:48:29 57° SSE
Cosmos 1607 4.4 00:47:22 41° SE 00:48:04 43° ESE 00:53:54 10° NE
Cosmos 2360 Rocket 3.8 00:46:07 10° NNW 00:51:14 33° NE 00:56:19 10° ESE
Cosmos-2242 3.7 00:52:12 46° E 00:52:12 46° E 00:55:59 10° NNE
Cosmos 2333 Rocket 3.0 00:46:59 10° NNW 00:52:30 49° NE 00:57:05 15° ESE
USA 281 3.5 00:51:27 21° SE 00:55:57 66° ENE 01:02:28 10° NNW
Cosmos 1452 Rocket 4.2 00:58:56 39° W 00:59:47 42° WNW 01:04:46 10° NNE
Cosmos 2082 Rocket 2.1 00:59:24 66° S 01:00:12 81° ESE 01:05:57 10° NNE
Cosmos 1833 Rocket 4.1 01:00:04 23° W 01:02:21 30° NW 01:07:17 10° NNE
Nadezhda 4 Rocket 4.4 00:57:45 10° NNW 01:03:28 42° W 01:04:04 41° WSW
Cosmos 2098 Rocket 4.1 01:03:15 46° W 01:03:58 48° WNW 01:09:23 10° N
Cosmos 2279 Rocket 4.4 01:03:59 38° SSE 01:06:06 55° E 01:12:11 10° NNE
Cosmos 2278 4.3 01:00:42 10° NNW 01:06:19 55° NE 01:11:11 14° SE
Cosmos 2322 Rocket 3.3 01:01:21 10° NNW 01:06:43 42° NE 01:12:03 10° ESE
Cosmos 1486 Rocket 4.4 01:02:03 10° NNW 01:07:13 59° ENE 01:09:36 31° SE
Cosmos 1867 4.2 01:06:15 38° W 01:07:49 50° NW 01:13:08 10° NE
Cosmos 2221 4.3 01:07:40 21° ESE 01:08:35 22° E 01:11:50 10° NE
Resurs 1-4 Rocket 4.5 01:05:35 10° NE 01:08:41 16° E 01:11:46 10° ESE
NOSS 3-3 (A) 4.2 01:14:12 39° SE 01:14:59 42° ESE 01:20:40 10° NE
ACS3 Solar Sail 1.7 01:10:52 10° NNE 01:16:56 83° WNW 01:18:33 52° SSW
Cosmos 1606 Rocket 4.3 01:18:01 41° WNW 01:18:01 41° WNW 01:22:02 10° N
Cosmos 1777 Rocket 4.4 01:12:38 10° NNW 01:17:53 63° ENE 01:20:41 27° SE
Cosmos 2219 Rocket 3.8 01:15:28 10° NNW 01:20:34 34° NE 01:25:41 10° ESE
SL-16 R/B 2.2 01:16:14 10° NNW 01:21:57 82° ENE 01:24:53 30° SE
CZ-4C R/B 1.6 01:22:06 72° WSW 01:22:33 84° NW 01:28:09 10° NE
GP-B 3.2 01:19:13 10° N 01:23:25 62° WNW 01:23:25 62° WNW
Cosmos 1271 Rocket 4.2 01:27:38 24° E 01:27:55 24° E 01:30:48 10° NE
SL-4 R/B 3.5 01:31:34 24° ESE 01:31:34 24° ESE 01:33:11 10° ESE
ATLAS 3B R/B 3.6 01:22:48 10° NW 01:29:24 32° WSW 01:29:24 32° WSW
CZ-2C R/B 4.4 01:30:23 17° W 01:30:23 17° W 01:33:35 10° NW
NOSS 3-3 (C) 4.2 01:30:27 39° SSE 01:31:42 46° ESE 01:37:33 10° NE
USA 267 4.1 01:26:07 10° ENE 01:32:01 34° SE 01:34:01 29° SSE
Cosmos 2058 Rocket 2.9 01:32:04 74° WSW 01:32:19 78° W 01:36:46 10° N
Cosmos 2026 Rocket 4.4 01:27:58 10° NNW 01:33:50 44° W 01:35:01 40° WSW
Cosmos 2266 Rocket 4.3 01:28:52 10° N 01:34:58 61° ENE 01:39:09 20° SSE
Gbstr 26 Del rocket 3.5 01:37:23 39° ESE 01:37:23 39° ESE 01:39:48 10° ESE
Cosmos 1470 3.0 01:33:07 10° N 01:36:16 52° ENE 01:36:16 52° ENE
KORONAS-FOTON 3.9 01:38:28 59° NNE 01:38:28 59° NNE 01:41:17 10° NNE
Cosmos 909 Rocket 4.1 01:37:58 40° WSW 01:40:22 72° NW 01:46:49 10° NE
Cosmos 1092 Rocket 4.5 01:41:50 10° NNW 01:47:29 40° W 01:48:43 36° WSW
Cosmos 1536 3.4 01:44:04 10° NNW 01:46:48 40° NW 01:46:48 40° NW
Cosmos 1812 Rocket 4.3 01:49:34 32° SE 01:51:05 47° E 01:55:16 10° NNE
Meteor 2-6 Rocket 4.2 01:49:06 40° S 01:51:19 87° E 01:57:15 10° NNE
NOSS 3-4 (A) 4.2 01:45:27 10° NW 01:51:53 63° NE 01:59:30 10° ESE
NOSS 3-4 (C) 4.2 01:45:59 10° NW 01:52:26 63° NE 02:00:04 10° ESE
Meteor 1-26 Rocket 4.4 01:51:49 42° WSW 01:53:11 53° WNW 01:58:30 10° N
IDEFIX/ARIANE 42P 2.5 01:50:32 10° NNE 01:55:43 75° WNW 01:57:22 44° SSW
Envisat 4.0 01:53:27 10° NNE 01:58:15 40° E 02:01:23 19° SSE
Aureole 1 Rocket 4.3 01:55:02 10° N 01:58:52 42° ENE 02:03:37 10° SE
Cosmos 1707 3.8 02:03:05 23° NW 02:03:05 23° NW 02:04:43 10° N
Cosmos 2084 Rocket 3.5 01:58:09 10° NW 02:02:21 75° NE 02:06:36 10° SE
ATLAS 2AS CENTAUR R/B 4.0 01:57:22 10° W 02:03:31 33° NNW 02:09:38 10° NE
Iridium 4 Rocket 3.9 02:03:01 23° SSE 02:05:48 56° E 02:10:48 10° N
Cosmos 1980 Rocket 4.3 02:05:14 10° WNW 02:06:03 11° W 02:06:03 11° W
MOZ.5/SAFIR/RUBIN 5/SL-8 3.6 02:05:32 31° SSE 02:07:49 85° WSW 02:12:30 10° NNW
H-2A R/B 3.0 02:06:25 16° SE 02:09:03 47° ENE 02:12:31 10° N
Cosmos 1975 2.4 02:06:32 10° NNW 02:10:11 73° W 02:10:36 64° SSW
Cosmos 44 Rocket 3.8 02:08:21 34° WSW 02:10:22 55° NW 02:15:29 10° NE
USA 234 3.3 02:03:51 10° ESE 02:10:24 83° NNE 02:16:59 10° WNW
Cosmos 990 Rocket 3.9 02:05:26 10° NNW 02:10:36 88° ENE 02:15:45 10° SSE
ADEOS II 3.5 02:07:01 10° NNE 02:11:43 32° E 02:16:23 10° SSE
Cosmos 1763 Rocket 3.7 02:13:16 31° S 02:15:48 70° ESE 02:21:06 10° NNE
Cosmos 1238 Rocket 4.1 02:15:06 18° SE 02:16:20 24° E 02:18:51 10° NNE
ALOS 3.2 02:12:02 10° NNE 02:16:23 42° E 02:19:31 17° SSE
COSMOS 2406 3.5 02:14:30 33° WSW 02:17:02 60° NW 02:22:45 10° NNE
MSX 4.1 02:11:35 10° N 02:17:12 56° WNW 02:19:47 31° SW
COSMOS 2428 4.5 02:14:23 10° NNW 02:19:35 34° NE 02:24:44 10° ESE
CZ-2D R/B 2.8 02:15:19 10° NNE 02:20:27 50° E 02:24:32 16° S
SL-16 R/B 4.2 02:16:23 10° ESE 02:21:57 36° ENE 02:27:34 10° N
ADEOS Rocket 3.6 02:15:56 10° NNE 02:23:30 81° WNW 02:28:49 23° SSW
Cosmos 1354 Rocket 4.0 02:27:52 10° NNW 02:33:06 63° WSW 02:38:16 10° S
Cosmos 220 Rocket 4.3 02:32:09 34° WSW 02:33:23 46° WNW 02:37:18 10° NNE
Cosmos 1503 Rocket 4.3 02:29:24 10° NW 02:34:23 43° WSW 02:37:00 25° SSW
Cosmos 1607 4.4 02:31:28 23° WSW 02:35:14 53° NW 02:41:23 10° NE
Cosmos 1842 4.0 02:35:25 26° WNW 02:35:26 26° WNW 02:38:12 10° NNW
FENGYUN 3A 4.0 02:30:13 10° N 02:35:28 51° WNW 02:38:13 27° SW
Cosmos 2360 Rocket 2.2 02:29:58 10° NW 02:35:31 57° WSW 02:41:03 10° S
Cosmos 2333 Rocket 2.8 02:31:33 10° NW 02:36:38 35° WSW 02:39:00 25° SSW
Alouette 2 Rocket 3.5 02:33:21 10° NNW 02:37:35 70° ENE 02:41:07 10° SSE
USA 305 3.1 02:38:25 23° N 02:38:25 23° N 02:39:36 10° NE
USA 281 3.9 02:38:17 24° SW 02:40:52 31° WSW 02:46:37 10° NW
Meteor 2-10 Rocket 4.5 02:38:06 10° N 02:43:04 48° ENE 02:48:08 10° SSE
Cosmos 540 Rocket 3.4 02:41:18 26° SSW 02:44:18 80° WNW 02:49:30 10° NNE
Cosmos 2082 Rocket 3.7 02:41:13 14° W 02:44:57 26° NW 02:49:41 10° NNE
H-2A R/B 4.4 02:42:15 10° NE 02:45:06 18° E 02:47:55 10° SE
Cosmos 2221 3.1 02:43:58 29° WSW 02:45:23 38° WNW 02:49:17 10° N
NPP 4.3 02:43:32 10° N 02:48:31 39° WNW 02:51:28 22° WSW
Resurs 1-4 Rocket 2.1 02:43:50 10° NNE 02:49:11 89° WNW 02:53:20 17° SSW
Cosmos 2278 4.5 02:45:14 10° NW 02:50:10 31° WSW 02:52:57 20° SSW
Cosmos 468 Rocket 4.2 02:46:38 18° S 02:50:37 71° ESE 02:55:55 10° NNE
Cosmos 2322 Rocket 2.6 02:45:30 10° NW 02:50:45 41° WSW 02:56:00 10° S
BREEZE-M DEB (TANK) 2.9 02:50:12 25° W 02:51:49 71° S 02:59:01 10° ESE
DNEPR-1 R/B 4.2 02:48:31 10° NW 02:53:47 68° SW 03:00:13 10° SSE
Cosmos 1766 Rocket 3.4 02:52:25 10° NNW 02:56:47 76° W 03:01:04 10° S
Cosmos 1833 4.2 02:53:58 19° SSW 02:58:11 88° ESE 03:03:54 10° NNE
ACS3 Solar Sail 3.4 02:54:28 10° NNW 02:58:31 19° NW 03:02:06 12° W
Cosmos 1271 Rocket 3.7 03:01:02 22° W 03:02:05 26° WNW 03:05:04 10° N
H-2A R/B 2.1 02:58:11 10° NNE 03:03:20 86° ESE 03:08:28 11° SSW
CRYOSAT 2 4.4 02:59:28 10° S 03:04:22 86° E 03:09:17 10° N
Cosmos 2237 Rocket 4.2 02:59:27 10° NNW 03:04:36 33° NE 03:09:41 10° ESE
Cosmos 2219 Rocket 2.3 02:59:18 10° NW 03:04:46 54° WSW 03:10:15 10° S
SL-16 R/B 3.5 03:01:28 10° WNW 03:05:21 19° W 03:06:38 18° WSW
NOSS 3-3 (A) 4.4 03:01:35 17° WSW 03:05:42 50° NW 03:12:06 10° NE
SL-4 R/B 2.8 03:05:08 22° WSW 03:06:24 26° SW 03:09:36 10° SSE
Meteor 1-11 Rocket 4.3 03:01:12 10° NNW 03:06:41 41° W 03:11:37 12° SSW
Meteor 2-11 Rocket 4.4 03:01:21 10° N 03:07:33 86° W 03:13:41 10° S
CZ-3 Stage 3 4.4 03:05:05 14° SSW 03:10:51 27° SSE 03:28:16 10° ESE
CZ-4C R/B 3.6 03:07:22 10° WNW 03:11:39 29° NNW 03:17:00 10° NE
USA 290 2.6 03:10:18 24° SW 03:11:54 46° WNW 03:14:58 10° NNE
ARGOS 3.9 03:08:59 10° NNE 03:14:17 53° E 03:19:31 10° S
USA 267 3.3 03:08:56 10° ENE 03:15:33 89° SSE 03:21:22 14° WSW
METEOR-M 4.2 03:11:35 10° NNE 03:16:57 79° ESE 03:22:17 10° SSW
Gbstr 26 Del rocket 3.7 03:19:26 13° W 03:21:54 25° SW 03:25:00 10° SSE
NOSS 3-3 (C) 4.5 03:17:53 14° WSW 03:22:34 48° NNW 03:29:01 10° NE
Cosmos 2322 3.7 03:19:25 10° NNW 03:25:11 90° N 03:30:53 10° SSE
Cosmos 372 Rocket 4.2 03:24:12 10° NNW 03:29:09 47° WSW 03:34:02 10° S
NOSS 3 (A) 4.5 03:28:35 10° NW 03:30:47 65° NE 03:33:39 10° SE
ISS -2.5 03:29:12 13° SSW 03:31:49 31° SSE 03:34:52 10° E
IDEFIX/ARIANE 42P 4.5 03:31:29 10° NNW 03:34:20 15° NW 03:37:11 10° W
Envisat 3.9 03:32:34 10° N 03:37:06 34° WNW 03:41:31 10° SW
BREEZE-M DEB (TANK) 3.1 03:31:26 12° SW 03:37:09 40° SSE 03:39:56 10° E
Meteor 2-4 Rocket 3.8 03:34:46 10° SSW 03:40:01 53° WNW 03:45:16 10° N
Cosmos 1461 2.6 03:37:00 11° SW 03:40:38 81° SE 03:44:22 10° NE
Aureole 1 Rocket 4.1 03:37:08 10° NW 03:40:43 27° WSW 03:45:00 10° SSW
NOSS 3-4 (A) 4.2 03:36:23 10° NW 03:42:45 42° WSW 03:50:06 10° S
H-2A R/B 3.8 03:41:22 11° SW 03:43:15 16° W 03:45:30 10° NW
NOSS 3-4 (C) 4.2 03:36:55 10° NW 03:43:19 43° WSW 03:50:41 10° S
Meteor 1-28 Rocket 4.3 03:41:05 10° SE 03:44:11 42° ENE 03:47:19 10° N
AQUA 3.8 03:39:51 10° NNE 03:44:34 90° WSW 03:49:14 10° SSW
Cosmos 1066 Rocket 4.1 03:40:06 10° SSW 03:45:26 67° WNW 03:50:47 10° N
NOSS 0 Rocket 4.0 03:39:15 10° NNW 03:45:30 89° ENE 03:51:40 10° SSE
Cosmos 1151 Rocket 3.4 03:44:50 10° S 03:49:00 66° E 03:53:13 10° NNE
Cosmos 1500 Rocket 3.6 03:45:53 10° N 03:50:20 86° E 03:54:45 10° S
Cosmos 1842 Rocket 3.9 03:46:57 10° SSW 03:51:06 47° WNW 03:55:18 10° N
ADEOS II 2.6 03:46:27 10° N 03:51:23 43° WNW 03:56:18 10° SW
Cosmos 1238 Rocket 3.9 03:50:23 10° WSW 03:52:20 16° WNW 03:54:21 10° NNW
ALOS 3.3 03:49:16 10° N 03:53:08 28° WNW 03:56:59 10° WSW
BREEZE-M DEB (TANK) 2.5 03:50:01 10° W 03:53:42 58° N 03:55:47 10° E
USA 234 3.7 03:47:45 10° SSE 03:53:49 40° SW 03:59:56 10° WNW
BREEZE-M DEB (TANK) 4.2 03:50:21 10° W 03:53:57 35° SSW 04:03:46 10° SE
Cosmos 1386 Rocket 4.5 03:48:21 10° NNW 03:54:26 69° W 04:00:35 10° S
ATLAS 2AS CENTAUR R/B 4.5 03:50:38 10° NW 03:56:23 27° N 04:02:04 10° ENE
TSX-5 3.0 03:54:14 10° NW 03:57:22 78° WSW 04:00:26 10° SSE
Cosmos 858 Rocket 4.5 03:52:21 10° NNW 03:57:32 67° WSW 04:02:38 10° S
Cosmos 2297 Rocket 3.4 03:52:25 10° S 03:57:43 44° ESE 04:03:02 10° NE
CZ-2D R/B 3.1 03:55:42 10° N 04:00:12 30° WNW 04:04:45 10° WSW
S3M 4.3 03:54:10 10° S 04:00:29 75° E 04:06:46 10° NNE
CZ-3 R/B 4.3 03:48:14 10° WSW 04:07:18 26° SSW 04:15:09 10° SSE
